Campo, CA

12:40 AM PDT on August 25, 2019 (GMT -0700)
Campo

Weather History for KCZZ - June, 2019

Change the Weather History Date:

Friday, June 7, 2019

  Actual Average Record
Temperature  
Mean Temperature 64 °F 64 °F  
Max Temperature 80 °F 85 °F 102 °F (1985)
Min Temperature 48 °F 44 °F 31 °F (1980)
Degree Days  
Heating Degree Days 1 3  
Month to date heating degree days 17 22  
Since 1 June heating degree days 17 22  
Since 1 July heating degree days 3032 2949  
Cooling Degree Days 0 2  
Month to date cooling degree days 10 14  
Year to date cooling degree days 12 44  
Since 1 June cooling degree days 10 14  
Growing Degree Days 14 (Base 50)    
Moisture  
Dew Point 51 °F    
Average Humidity 62    
Maximum Humidity 93    
Minimum Humidity 30    
Precipitation  
Precipitation 0.00 in 0.01 in 0.01 in (1998)
Month to date precipitation 0.00 0.03  
Year to date precipitation 12.74 10.07  
Sea Level Pressure  
Sea Level Pressure 29.81 in    
Wind  
Wind Speed 9 mph (SSW)    
Max Wind Speed 21 mph    
Max Gust Speed 24 mph    
T = Trace of Precipitation, MM = Missing Value Source: NWS Daily Summary

Daily Weather History Graph

Daily Weather History Graph

Search for Another Location

Airport or City:

Astronomy

Jun. 07, 2019 Rise Set
Actual Time 5:37 AM PDT 7:51 PM PDT
Civil Twilight 5:09 AM PDT 8:20 PM PDT
Nautical Twilight 4:35 AM PDT 8:54 PM PDT
Astronomical Twilight 3:57 AM PDT 9:32 PM PDT
Moon 9:56 AM PDT (6/7) No Moon Set
Length of Visible Light 15h 10m
Length of Day
14h 13m
Waxing Crescent, 23% of the Moon is Illuminated
Jun 7
Waxing Crescent
Jun 9
First Quarter
Jun 17
Full
Jun 25
Last Quarter
Jul 2
New

Hourly Weather History & Observations

Time (PDT) Temp. Dew Point Humidity Pressure Visibility Wind Dir Wind Speed Gust Speed Precip Events Conditions
12:52 AM 54.0 °F 51.1 °F 90% 29.83 in - ENE 3.5 mph - N/A   Unknown
1:52 AM 53.1 °F 50.0 °F 89% 29.83 in - NE 5.8 mph - N/A   Unknown
2:52 AM 52.0 °F 48.9 °F 89% 29.82 in - ENE 4.6 mph - N/A   Unknown
3:52 AM 51.1 °F 48.9 °F 92% 29.82 in - NE 4.6 mph - N/A   Unknown
4:52 AM 48.9 °F 46.0 °F 90% 29.81 in - NE 5.8 mph - N/A   Unknown
5:52 AM 50.0 °F 46.9 °F 89% 29.82 in - NE 5.8 mph - N/A   Unknown
6:52 AM 55.0 °F 51.1 °F 86% 29.82 in - ENE 4.6 mph - N/A   Unknown
7:52 AM 64.9 °F 53.1 °F 65% 29.82 in - Calm Calm - N/A   Unknown
8:52 AM 70.0 °F 50.0 °F 49% 29.81 in - SW 9.2 mph - N/A   Unknown
9:52 AM 72.0 °F 50.0 °F 46% 29.81 in - SW 11.5 mph - N/A   Unknown
10:52 AM 75.0 °F 50.0 °F 41% 29.81 in - SSW 12.7 mph - N/A   Unknown
11:52 AM 78.1 °F 44.1 °F 30% 29.81 in - SW 13.8 mph - N/A   Unknown
12:52 PM 79.0 °F 48.9 °F 35% 29.80 in - SW 15.0 mph - N/A   Unknown
1:52 PM 79.0 °F 53.1 °F 40% 29.79 in - SW 16.1 mph - N/A   Unknown
2:52 PM 79.0 °F 54.0 °F 42% 29.79 in - SSW 17.3 mph - N/A   Unknown
3:52 PM 77.0 °F 55.9 °F 48% 29.79 in - SW 16.1 mph - N/A   Unknown
4:52 PM 75.0 °F 55.9 °F 51% 29.79 in - SW 13.8 mph - N/A   Unknown
5:52 PM 72.0 °F 55.9 °F 57% 29.80 in - SW 12.7 mph - N/A   Unknown
6:52 PM 69.1 °F 55.9 °F 63% 29.81 in - SW 12.7 mph - N/A   Unknown
7:52 PM 63.0 °F 55.0 °F 75% 29.81 in - SSW 10.4 mph - N/A   Unknown
8:52 PM 60.1 °F 54.0 °F 80% 29.81 in - Calm Calm - N/A   Unknown
9:52 PM 55.0 °F 51.1 °F 86% 29.83 in - North 4.6 mph - N/A   Unknown
10:52 PM 52.0 °F 48.9 °F 89% 29.83 in - NNE 3.5 mph - N/A   Unknown
11:52 PM 51.1 °F 48.0 °F 89% 29.82 in - ENE 5.8 mph - N/A   Unknown